Location: Fort Wayne
(41.1310°N, 85.1290°W)
Time: 10:27:38
(UTC-04:00)

Cosmos 1953 - Visible Passes

Search period start: 27 March 2017 00:00
Search period end: 06 April 2017 00:00
Orbit: 541 x 560 km, 82.5° (Epoch: 25 March)

Date Brightness Start Highest point End Pass type
(mag) Time Alt. Az. Time Alt. Az. Time Alt. Az.
27 Mar 3.5 21:32:40 10° SSW 21:36:35 45° WNW 21:40:29 10° N visible
28 Mar 3.8 21:28:44 10° SSW 21:32:34 40° WNW 21:36:25 10° N visible
29 Mar 4.0 21:24:48 10° SW 21:28:34 36° WNW 21:32:20 10° N visible
30 Mar 4.2 21:20:53 10° SW 21:24:33 33° WNW 21:28:15 10° NNW visible
31 Mar 4.5 21:16:58 10° SW 21:20:33 30° WNW 21:24:09 10° NNW visible
01 Apr 4.7 21:13:04 10° SW 21:16:33 27° WNW 21:20:02 10° NNW visible
02 Apr 4.9 21:09:11 10° SW 21:12:33 25° WNW 21:15:55 10° NNW visible
03 Apr 5.2 21:05:20 10° SW 21:08:33 23° WNW 21:11:47 10° NNW visible
04 Apr 5.4 21:01:29 10° WSW 21:04:33 21° WNW 21:07:38 10° NNW visible
05 Apr 5.6 20:57:40 10° WSW 21:00:34 19° WNW 21:03:28 10° NNW visible
